Theta_e
309 310 310 310 310 311 311 312 313 312 312 312 312 312 310 310 311 311 309 308 309 311 320 326 329 328 328 328 326 328 333 332 333 329 330 328 334 333 332 334 333 332 332 331 330
309 310 309 308 309 311 311 311 311 310 310 310 312 313 313 312 311 311 310 305 304 316 319 322 329 327 329 329 329 330 332 329 328 324 328 326 331 335 337 336 337 333 331 331 329
309 307 305 305 307 311 312 311 309 309 311 313 312 311 312 313 312 312 309 310 310 316 319 318 319 327 330 328 330 330 332 328 322 324 323 327 333 333 336 338 336 336 331 330 328
306 305 305 305 306 307 310 311 311 312 312 313 313 311 313 313 318 314 314 311 311 316 319 316 319 330 330 332 329 332 328 325 322 323 323 331 332 334 336 333 330 332 330 329 328
302 304 304 303 305 307 308 307 310 310 311 314 314 312 312 311 312 311 312 314 313 316 318 317 321 329 331 330 329 331 328 324 324 321 322 327 331 333 333 332 331 331 329 329 329
299 301 302 302 303 306 308 307 309 310 312 314 314 312 311 313 310 309 310 314 316 317 317 315 321 326 329 329 330 328 326 325 325 323 323 329 327 327 330 330 332 331 330 328 328
296 298 299 301 301 305 308 308 310 312 313 313 313 311 310 313 310 311 311 315 317 316 312 315 317 320 327 329 323 326 328 327 326 325 327 326 330 329 328 330 330 330 330 328 328
295 295 297 299 301 303 307 306 311 311 311 313 313 311 313 309 310 310 312 313 315 315 312 312 318 320 327 325 326 330 330 333 329 327 323 326 333 327 330 331 331 330 329 328 329
295 295 295 297 298 303 307 306 308 309 310 311 313 312 312 311 312 313 312 313 316 315 315 315 316 321 324 331 332 331 335 334 331 328 326 328 332 325 330 332 333 330 331 330 331
295 294 295 295 297 305 307 306 310 310 311 312 312 312 312 312 310 311 313 313 315 316 315 315 317 323 330 331 335 335 334 333 333 329 329 329 331 322 328 332 333 332 332 332 332
299 295 295 294 297 307 305 307 310 313 311 315 313 313 312 312 311 312 312 315 315 315 315 314 317 326 332 330 330 331 332 333 329 326 329 330 330 328 320 328 331 332 333 332 332
302 297 295 294 300 306 304 307 306 305 310 310 312 313 312 311 316 316 315 316 314 317 314 314 318 325 330 329 330 330 332 331 326 326 330 330 331 329 328 323 326 328 330 331 331
305 299 295 295 304 305 303 302 302 302 310 313 312 312 312 312 317 317 315 315 316 316 315 316 315 316 329 329 331 331 332 329 331 326 324 328 334 331 328 322 319 321 325 327 329
309 303 296 295 304 303 303 301 302 303 315 312 313 312 314 314 318 314 314 317 320 318 318 317 315 319 327 331 330 333 329 329 328 331 336 328 336 331 329 327 320 320 318 321 323
312 306 298 296 300 304 301 301 302 304 325 311 313 311 313 317 316 317 314 316 320 321 320 320 322 321 324 329 327 330 326 327 328 331 331 329 334 330 326 330 327 321 320 319 320
311 311 302 296 297 301 300 303 302 319 321 313 312 315 316 315 316 316 317 315 315 317 317 317 314 317 322 325 325 324 323 324 323 327 332 330 332 333 330 328 327 322 319 318 317
311 309 306 298 299 298 301 299 318 324 308 315 314 315 316 315 317 317 317 317 321 323 320 317 316 315 314 324 325 326 327 328 330 331 335 323 331 330 327 322 323 324 321 318 316
311 309 304 299 297 298 300 307 312 303 307 309 312 314 318 314 317 317 319 320 316 318 321 325 323 313 313 319 325 328 328 332 332 332 329 319 330 329 320 315 315 317 316 316 315
311 308 299 297 297 300 304 320 314 301 307 311 313 316 318 316 316 318 318 319 315 315 324 322 318 309 314 314 317 322 328 319 321 312 325 326 322 318 310 311 312 313 313 313 313
309 299 295 297 297 300 309 315 302 300 306 309 315 312 318 316 317 318 319 314 315 312 312 316 319 310 313 314 314 319 316 325 321 332 333 324 319 325 313 309 309 312 313 313 312
306 302 297 296 300 304 314 308 300 300 304 309 312 311 312 315 315 317 317 314 313 313 314 315 318 315 314 315 317 316 317 316 320 323 330 330 328 313 309 308 308 308 311 312 312
298 307 298 300 305 294 306 297 299 303 303 307 306 308 310 313 315 316 316 314 309 312 317 314 315 319 315 309 310 314 318 319 330 324 319 318 325 307 307 309 309 308 309 311 311
302 301 298 297 310 306 296 299 299 303 305 307 308 306 304 308 313 313 312 305 308 311 311 313 316 319 317 314 311 316 315 317 312 312 319 321 323 305 308 309 311 310 310 310 309
300 305 299 298 296 304 302 303 303 299 303 304 305 305 305 306 305 309 308 307 306 307 305 307 311 314 320 315 315 317 316 316 317 317 319 319 320 313 308 308 310 310 309 308 307
301 304 301 304 303 300 301 301 302 303 301 303 306 306 306 305 304 307 306 307 305 306 304 307 311 306 306 306 309 311 312 315 317 318 320 320 316 318 318 311 309 310 308 307 307
300 301 297 300 299 301 303 302 303 301 303 305 305 305 305 306 307 307 307 308 312 304 306 302 311 304 305 301 302 305 307 313 313 315 317 316 317 315 314 309 307 309 307 307 307
297 297 304 301 299 303 303 305 303 302 302 302 304 304 304 304 301 300 300 301 303 307 306 306 305 308 317 295 297 307 303 306 311 313 315 317 315 313 312 311 310 309 307 307 307
Wind_Speed
12 14 14 15 16 15 13 12 13 11 12 12 13 11 11 10 10 9 14 9 12 14 10 3 18 15 16 7 5 6 4 12 18 16 6 4 5 4 2 8 3 2 2 6 22
13 13 14 16 16 16 15 14 14 14 15 15 15 16 14 12 11 20 19 15 16 11 10 12 11 19 4 8 7 9 13 19 10 6 8 7 5 7 5 8 4 4 3 21 24
14 14 16 16 15 14 13 13 13 15 14 14 15 10 12 9 5 7 11 23 16 13 10 12 15 12 10 6 11 15 19 14 8 3 5 6 6 4 4 7 6 9 14 22 23
14 15 16 16 15 14 13 12 12 13 13 13 12 9 6 9 7 2 2 3 18 12 9 8 10 10 6 11 10 15 18 14 8 4 4 9 8 4 7 2 1 2 18 23 19
13 14 15 16 16 16 16 15 11 12 13 10 9 4 7 3 8 7 4 5 12 14 13 9 12 7 8 10 10 14 16 13 8 5 3 9 6 1 5 3 2 11 18 19 18
14 14 15 17 17 18 19 17 12 10 10 9 9 10 5 10 6 14 7 5 12 17 11 12 6 10 10 10 13 6 8 11 5 4 4 7 5 3 2 1 5 13 15 17 18
15 16 17 18 21 20 20 15 9 5 7 8 3 10 4 11 4 10 6 5 10 19 7 15 11 9 3 11 4 15 9 5 6 4 5 6 4 5 3 4 8 11 13 14 17
15 17 17 19 21 22 21 17 11 5 7 7 5 4 6 4 9 18 12 9 9 20 19 21 12 15 7 15 6 7 9 11 11 9 1 5 14 8 7 8 8 10 10 11 14
16 17 17 18 20 23 21 23 16 13 9 7 2 3 5 7 5 7 14 10 12 16 14 10 11 11 7 17 6 6 9 9 9 10 4 4 8 8 7 7 8 9 11 12 13
17 19 19 18 20 22 20 23 6 5 1 5 2 2 4 3 7 7 9 14 7 11 8 2 4 14 13 16 20 14 8 15 6 11 12 11 13 7 8 8 10 10 11 13 14
16 18 20 19 20 18 19 8 3 2 1 4 2 5 12 11 19 12 12 11 9 6 6 8 8 14 25 21 13 12 12 11 3 2 15 21 18 13 11 11 11 11 12 13 15
15 18 20 20 17 12 9 4 3 3 7 6 9 6 11 9 5 4 24 6 14 16 11 2 11 14 18 14 17 16 14 7 4 4 7 15 26 20 16 16 16 15 14 15 14
13 16 19 22 10 6 7 4 3 1 4 4 5 3 7 6 5 5 2 13 15 17 16 8 9 19 12 10 12 9 15 7 6 5 1 5 15 22 16 16 15 15 14 14 16
13 14 17 20 3 7 2 8 4 0 3 2 1 3 3 3 3 3 5 5 7 14 9 5 8 13 5 10 13 5 8 12 13 6 3 7 4 11 17 18 18 18 17 17 17
11 13 14 13 6 2 6 8 3 2 5 8 4 4 1 3 4 7 3 5 9 13 8 4 7 12 6 8 6 3 5 11 8 7 5 6 3 5 5 15 21 21 21 19 19
10 10 12 7 6 3 9 5 2 2 4 4 4 6 5 6 8 4 5 5 5 7 4 4 2 3 3 5 5 11 9 6 4 3 5 11 9 5 8 16 15 17 18 18 16
11 9 9 8 2 8 8 1 2 2 2 7 4 5 2 5 5 6 4 4 2 6 3 1 3 3 4 6 9 5 11 2 2 3 4 2 9 11 8 10 14 12 16 18 16
12 8 8 6 5 6 2 1 1 1 4 3 4 4 3 5 2 4 1 3 3 3 3 4 2 5 5 2 3 13 11 5 6 5 3 2 6 6 4 7 6 7 6 11 15
11 7 4 3 2 2 1 2 3 4 0 3 5 2 2 1 2 1 1 2 2 2 4 6 4 4 3 2 1 3 5 4 5 2 1 5 5 14 5 9 7 4 6 12 15
6 2 3 3 3 4 3 5 2 2 1 2 2 1 2 1 2 1 2 2 0 1 3 2 6 3 4 3 8 2 5 3 1 6 5 3 4 3 2 5 3 7 9 11 13
7 1 4 5 4 3 2 5 3 3 3 2 1 2 3 2 3 2 2 2 2 2 2 3 3 1 3 2 4 2 3 3 3 1 2 2 1 1 6 9 11 9 9 11 13
7 2 2 9 2 0 3 5 1 3 3 3 2 4 3 3 4 2 2 1 4 1 3 2 4 3 1 3 2 2 4 4 3 4 1 2 2 0 6 8 8 10 7 10 13
4 2 0 3 4 3 1 3 3 4 4 3 3 3 1 2 2 2 2 2 1 3 2 1 2 4 1 2 0 3 4 3 5 2 6 4 3 4 5 5 3 3 4 8 11
3 2 2 2 1 4 4 4 4 3 2 2 1 2 1 2 1 2 3 1 2 2 3 1 2 1 1 2 4 5 6 9 5 4 4 7 9 8 9 5 2 3 5 8 11
3 4 4 5 5 5 4 6 5 5 2 2 2 5 4 3 3 2 1 3 3 1 1 1 2 1 3 4 2 1 4 12 11 14 8 7 15 20 13 6 2 5 7 9 12
5 4 1 3 2 9 7 8 9 4 7 5 4 6 8 4 4 3 3 2 1 2 1 2 1 2 4 6 5 4 9 10 15 15 21 15 22 15 14 8 4 6 10 14 17
3 3 2 8 5 5 6 7 10 7 6 3 6 4 6 7 3 2 4 5 3 2 3 3 4 2 0 4 4 7 12 17 9 11 14 11 12 10 9 8 8 10 11 12 14
Wind_Direction
360 3 3 359 353 346 339 336 332 333 320 312 307 297 290 286 289 271 244 225 215 258 241 321 193 196 188 193 212 194 211 212 216 209 182 164 190 139 105 143 169 152 166 143 156
351 349 353 358 351 346 339 325 319 317 314 311 302 291 273 277 274 264 252 253 229 241 252 230 214 163 177 191 196 193 205 205 197 192 178 169 178 161 169 163 171 148 100 142 152
342 344 356 359 357 347 340 335 322 316 315 312 309 297 272 244 282 266 250 233 226 217 249 230 292 156 196 170 190 200 214 195 173 157 196 158 138 168 169 205 197 187 162 157 160
339 343 351 353 354 352 344 341 337 329 318 314 301 289 277 167 251 83 33 188 224 221 211 222 274 171 179 177 179 192 212 185 148 148 195 165 132 171 201 54 353 178 166 163 169
340 343 345 344 349 352 346 335 326 316 315 308 285 267 150 191 242 251 336 221 218 213 195 194 242 208 168 164 159 208 188 183 131 106 240 151 121 108 212 355 266 154 163 172 175
335 339 340 337 341 344 341 332 325 324 308 302 282 186 164 243 248 229 265 257 213 200 183 180 243 286 164 160 172 144 160 152 127 125 245 171 115 126 171 57 138 161 169 177 184
329 333 336 336 337 339 339 342 316 335 314 313 184 174 202 232 208 211 235 242 214 191 172 199 282 319 212 149 115 134 126 137 164 173 209 151 131 208 134 161 164 173 174 183 193
330 329 333 334 335 334 332 335 289 289 309 305 178 200 248 255 241 251 245 253 225 190 188 196 297 313 226 131 112 124 149 180 182 190 206 243 190 181 168 172 173 179 178 188 202
339 333 331 331 332 330 328 324 302 259 285 258 218 216 259 282 274 239 222 236 195 192 191 161 338 288 177 154 136 186 184 172 171 209 153 205 210 171 174 178 183 192 189 192 201
341 340 337 332 332 331 332 325 307 263 149 223 239 300 240 265 240 228 237 223 163 145 91 71 266 266 163 168 188 170 148 188 161 196 206 202 234 183 191 196 201 199 191 195 201
342 341 344 338 336 337 344 339 347 198 295 267 239 239 279 282 268 241 191 160 122 117 129 167 282 264 169 179 173 156 144 145 124 213 204 222 226 212 195 206 208 210 201 201 210
340 342 344 342 336 343 357 49 42 334 306 265 252 257 276 286 289 93 153 118 147 150 116 341 255 305 162 153 154 150 154 137 92 144 188 220 229 225 225 224 220 215 211 209 209
338 343 344 345 340 10 49 37 347 8 259 277 228 244 297 315 332 1 244 136 142 138 153 214 262 314 149 143 143 158 164 156 142 125 154 215 229 230 225 223 221 226 227 216 207
329 340 346 351 40 355 53 348 348 140 283 12 271 202 297 275 292 330 355 156 169 153 125 246 276 276 197 164 158 141 192 160 133 155 221 217 275 228 228 220 217 215 217 217 210
317 330 349 360 331 11 326 334 320 227 323 8 333 173 206 351 307 358 303 352 66 125 155 159 215 212 268 145 108 97 133 135 156 178 189 176 252 239 231 243 236 220 215 214 210
287 314 339 349 345 334 333 330 247 247 288 7 323 356 2 359 357 335 353 53 56 90 90 161 229 17 356 77 108 129 86 63 79 120 237 190 200 242 199 229 241 230 223 217 203
268 288 317 334 323 322 338 221 309 82 22 343 340 358 17 358 351 4 17 41 94 130 152 146 34 13 351 111 150 168 126 113 144 201 231 49 202 249 225 229 232 243 231 219 200
252 269 291 292 299 334 25 18 308 142 266 328 310 321 26 20 19 326 83 105 17 51 110 134 161 349 348 1 177 166 175 175 184 199 159 97 227 247 239 285 290 265 233 198 200
233 266 251 226 256 23 46 328 220 217 322 313 308 292 131 359 283 316 23 92 50 337 149 165 120 289 37 57 27 190 199 24 100 45 149 193 232 275 279 259 248 248 182 188 191
198 250 213 200 180 105 85 257 245 251 274 169 275 302 301 5 197 45 20 323 200 319 276 153 105 18 322 244 36 70 119 104 334 165 221 195 260 243 12 330 289 239 224 200 188
147 243 165 172 154 84 195 227 248 242 262 207 230 280 294 339 343 7 31 45 341 318 42 100 69 124 269 1 160 84 119 70 105 255 249 283 181 272 296 302 290 272 231 206 190
134 211 208 159 112 75 193 192 208 235 204 264 225 218 221 209 181 191 139 95 348 318 59 22 101 111 146 239 266 94 149 169 176 184 246 324 268 176 304 306 298 286 242 200 190
160 124 39 129 177 207 175 235 243 196 219 195 267 185 109 243 222 203 156 22 340 46 58 83 114 122 129 190 64 192 187 159 90 37 195 180 183 186 237 304 327 293 194 180 177
133 168 288 62 342 164 163 204 204 219 244 240 254 329 1 278 205 222 151 65 23 105 45 110 99 356 114 74 129 182 181 184 176 173 166 229 270 237 233 263 277 213 187 183 186
163 214 188 175 223 193 178 155 164 191 236 238 198 228 183 300 337 258 156 135 92 123 71 108 118 155 93 54 44 343 199 190 205 219 222 253 236 248 270 252 216 191 180 184 190
135 156 126 140 114 169 185 203 184 168 153 219 202 200 196 200 235 274 168 253 150 52 81 356 95 34 33 31 21 301 252 215 226 238 247 261 277 272 270 265 246 191 190 199 203
149 127 170 154 153 160 198 182 197 157 220 171 164 153 205 211 158 25 55 48 73 142 124 109 130 116 275 10 346 280 230 206 203 204 225 222 239 280 290 276 266 246 220 222 219